Albert Lea, MN

5:53 PM CDT on April 28, 2017 (GMT -0500)
Albert Lea Municipal

Weather History for KAEL - August, 2014

Change the Weather History Date:

Wednesday, August 20, 2014

  Actual Average Record
Temperature  
Mean Temperature 71 °F -  
Max Temperature 82 °F 75 °F 87 °F (2003)
Min Temperature 60 °F 57 °F 44 °F (2012)
Cooling Degree Days 6    
Growing Degree Days 21 (Base 50)    
Moisture  
Dew Point 65 °F    
Average Humidity 81    
Maximum Humidity 100    
Minimum Humidity 54    
Precipitation  
Precipitation 0.00 in - - ()
Sea Level Pressure  
Sea Level Pressure 29.85 in    
Wind  
Wind Speed 2 mph (SSE)    
Max Wind Speed 9 mph    
Max Gust Speed -    
Visibility 7 miles    
Events Fog    
Averages and records for this station are not official NWS values.
T = Trace of Precipitation, MM = Missing Value Source: NWS Daily Summary

Daily Weather History Graph

Daily Weather History Graph

Search for Another Location

Airport or City:

Trip Planner

Search our weather history database for the weather conditions in past years. The results will help you decide how hot, cold, wet, or windy it might be!

Date:

Astronomy

Aug. 20, 2014 Rise Set
Actual Time 6:23 AM CDT 8:09 PM CDT
Civil Twilight 5:53 AM CDT 8:39 PM CDT
Nautical Twilight 5:15 AM CDT 9:16 PM CDT
Astronomical Twilight 4:35 AM CDT 9:56 PM CDT
Moon 2:00 AM CDT (8/20) 4:57 PM CDT (8/20)
Length of Visible Light 14h 46m
Length of Day
13h 45m
Waning Crescent, 20% of the Moon is Illuminated
Aug 20
Waning Crescent
Aug 25
New
Sep 2
First Quarter
Sep 8
Full
Sep 15
Last Quarter

Hourly Weather History & Observations

Time (CDT) Temp. Heat Index Dew Point Humidity Pressure Visibility Wind Dir Wind Speed Gust Speed Precip Events Conditions
12:13 AM 66.2 °F - 64.4 °F 94% 29.82 in 3.0 mi Calm Calm - N/A   Clear
12:32 AM 66.2 °F - 64.4 °F 94% 29.82 in 0.8 mi Calm Calm - N/A   Mist
12:53 AM 66.2 °F - 66.2 °F 100% 29.82 in 3.0 mi Calm Calm - N/A   Clear
1:12 AM 66.2 °F - 64.4 °F 94% 29.82 in 0.2 mi Calm Calm - N/A Fog Fog
1:32 AM 64.4 °F - 64.4 °F 100% 29.83 in 2.0 mi Calm Calm - N/A   Mist
1:53 AM 66.2 °F - 64.4 °F 94% 29.83 in 4.0 mi Calm Calm - N/A   Clear
2:12 AM 66.2 °F - 64.4 °F 94% 29.83 in 5.0 mi Calm Calm - N/A   Clear
2:32 AM 64.4 °F - 64.4 °F 100% 29.83 in 1.0 mi Calm Calm - N/A   Mist
2:53 AM 64.4 °F - 64.4 °F 100% 29.82 in 0.2 mi Calm Calm - N/A Fog Fog
3:12 AM 64.4 °F - 64.4 °F 100% 29.83 in 5.0 mi Calm Calm - N/A   Clear
3:32 AM 64.4 °F - 64.4 °F 100% 29.82 in 5.0 mi Calm Calm - N/A   Clear
3:53 AM 64.4 °F - 62.6 °F 94% 29.83 in 7.0 mi Calm Calm - N/A   Clear
4:12 AM 62.6 °F - 62.6 °F 100% 29.83 in 2.5 mi Calm Calm - N/A   Clear
4:32 AM 62.6 °F - 62.6 °F 100% 29.83 in 2.5 mi Calm Calm - N/A   Clear
4:53 AM 62.6 °F - 62.6 °F 100% 29.82 in 0.5 mi Calm Calm - N/A Fog Fog
5:12 AM 62.6 °F - 62.6 °F 100% 29.82 in 0.5 mi Calm Calm - N/A Fog Fog
5:33 AM 60.8 °F - 60.8 °F 100% 29.81 in 5.0 mi Calm Calm - N/A   Mist
5:52 AM 60.8 °F - 60.8 °F 100% 29.81 in 2.5 mi Calm Calm - N/A   Mist
6:13 AM 60.8 °F - 60.8 °F 100% 29.83 in 4.0 mi Calm Calm - N/A   Clear
6:32 AM 60.8 °F - 60.8 °F 100% 29.85 in 4.0 mi Calm Calm - N/A   Clear
6:52 AM 62.6 °F - 62.6 °F 100% 29.84 in 3.0 mi Calm Calm - N/A   Clear
7:13 AM 64.4 °F - 64.4 °F 100% 29.85 in 5.0 mi Calm Calm - N/A   Clear
7:32 AM 66.2 °F - 64.4 °F 94% 29.86 in 5.0 mi Calm Calm - N/A   Clear
7:52 AM 68.0 °F - 66.2 °F 94% 29.87 in 5.0 mi SW 4.6 mph - N/A   Clear
8:13 AM 68.0 °F - 66.2 °F 94% 29.87 in 7.0 mi Calm Calm - N/A   Clear
8:32 AM 69.8 °F - 66.2 °F 88% 29.87 in 7.0 mi Calm Calm - N/A   Clear
8:52 AM 69.8 °F - 68.0 °F 94% 29.88 in 7.0 mi Calm Calm - N/A   Clear
9:13 AM 71.6 °F - 68.0 °F 88% 29.88 in 7.0 mi Calm Calm - N/A   Clear
9:32 AM 71.6 °F - 66.2 °F 83% 29.87 in 10.0 mi SSE 3.5 mph - N/A   Clear
9:52 AM 73.4 °F - 66.2 °F 78% 29.87 in 10.0 mi SE 4.6 mph - N/A   Clear
10:13 AM 75.2 °F - 66.2 °F 73% 29.88 in 10.0 mi SSE 5.8 mph - N/A   Clear
10:32 AM 75.2 °F - 66.2 °F 73% 29.87 in 10.0 mi SSE 6.9 mph - N/A   Clear
10:53 AM 75.2 °F - 66.2 °F 73% 29.87 in 10.0 mi SSE 8.1 mph - N/A   Clear
11:12 AM 77.0 °F - 66.2 °F 69% 29.86 in 10.0 mi SE 8.1 mph - N/A   Clear
11:32 AM 78.8 °F - 66.2 °F 65% 29.86 in 10.0 mi SSE 8.1 mph - N/A   Clear
11:53 AM 78.8 °F - 68.0 °F 69% 29.85 in 10.0 mi SSE 6.9 mph - N/A   Clear
12:12 PM 78.8 °F - 68.0 °F 69% 29.86 in 10.0 mi SE 8.1 mph - N/A   Clear
12:33 PM 78.8 °F - 66.2 °F 65% 29.87 in 10.0 mi SSE 6.9 mph - N/A   Clear
12:53 PM 78.8 °F - 66.2 °F 65% 29.87 in 10.0 mi South 5.8 mph - N/A   Clear
1:12 PM 80.6 °F 82.7 °F 66.2 °F 61% 29.87 in 10.0 mi SE 5.8 mph - N/A   Scattered Clouds
1:33 PM 80.6 °F 82.7 °F 66.2 °F 61% 29.87 in 10.0 mi SE 8.1 mph - N/A   Clear
1:53 PM 82.4 °F 83.9 °F 64.4 °F 54% 29.86 in 10.0 mi South 9.2 mph - N/A   Clear
2:12 PM 82.4 °F 83.9 °F 64.4 °F 54% 29.87 in 10.0 mi South 6.9 mph - N/A   Clear
2:33 PM 82.4 °F 84.6 °F 66.2 °F 58% 29.86 in 10.0 mi South 6.9 mph - N/A   Clear
2:52 PM 82.4 °F 84.6 °F 66.2 °F 58% 29.86 in 10.0 mi SSE 9.2 mph - N/A   Scattered Clouds
3:13 PM 80.6 °F 82.3 °F 64.4 °F 58% 29.85 in 10.0 mi South 5.8 mph - N/A   Scattered Clouds
3:32 PM 80.6 °F 82.7 °F 66.2 °F 61% 29.86 in 10.0 mi SSE 6.9 mph - N/A   Clear
3:53 PM 80.6 °F 82.7 °F 66.2 °F 61% 29.86 in 10.0 mi SSE 9.2 mph - N/A   Clear
4:12 PM 80.6 °F 82.7 °F 66.2 °F 61% 29.86 in 10.0 mi SSW 6.9 mph - N/A   Clear
4:32 PM 80.6 °F 83.2 °F 68.0 °F 65% 29.86 in 10.0 mi SE 6.9 mph - N/A   Clear
4:53 PM 80.6 °F 83.2 °F 68.0 °F 65% 29.86 in 10.0 mi South 4.6 mph - N/A   Scattered Clouds
5:12 PM 80.6 °F 82.7 °F 66.2 °F 61% 29.86 in 10.0 mi South 6.9 mph - N/A   Scattered Clouds
5:32 PM 80.6 °F 82.7 °F 66.2 °F 61% 29.86 in 10.0 mi South 3.5 mph - N/A   Clear
5:53 PM 80.6 °F 82.7 °F 66.2 °F 61% 29.87 in 10.0 mi SSE 5.8 mph - N/A   Clear
6:12 PM 80.6 °F 82.7 °F 66.2 °F 61% 29.87 in 10.0 mi SSE 5.8 mph - N/A   Clear
6:32 PM 80.6 °F 82.7 °F 66.2 °F 61% 29.87 in 10.0 mi SSE 6.9 mph - N/A   Clear
6:53 PM 77.0 °F - 66.2 °F 69% 29.86 in 10.0 mi South 5.8 mph - N/A   Clear
7:12 PM 75.2 °F - 66.2 °F 73% 29.86 in 10.0 mi SSE 4.6 mph - N/A   Clear
7:32 PM 75.2 °F - 66.2 °F 73% 29.86 in 10.0 mi SE 4.6 mph - N/A   Clear
7:53 PM 75.2 °F - 66.2 °F 73% 29.86 in 10.0 mi SE 4.6 mph - N/A   Clear
8:12 PM 75.2 °F - 66.2 °F 73% 29.87 in 10.0 mi SE 6.9 mph - N/A   Clear
8:32 PM 73.4 °F - 66.2 °F 78% 29.87 in 7.0 mi SE 3.5 mph - N/A   Clear
8:53 PM 73.4 °F - 68.0 °F 83% 29.87 in 10.0 mi SE 5.8 mph - N/A   Clear
9:12 PM 73.4 °F - 66.2 °F 78% 29.86 in 7.0 mi SE 6.9 mph - N/A   Scattered Clouds
9:33 PM 71.6 °F - 68.0 °F 88% 29.87 in 7.0 mi SE 5.8 mph - N/A   Clear
9:53 PM 71.6 °F - 66.2 °F 83% 29.87 in 10.0 mi SE 5.8 mph - N/A   Clear
10:12 PM 71.6 °F - 68.0 °F 88% 29.87 in 10.0 mi SE 5.8 mph - N/A   Clear
10:33 PM 71.6 °F - 68.0 °F 88% 29.88 in 10.0 mi ESE 3.5 mph - N/A   Clear
10:53 PM 71.6 °F - 68.0 °F 88% 29.87 in 10.0 mi SE 5.8 mph - N/A   Clear
11:12 PM 71.6 °F - 66.2 °F 83% 29.88 in 10.0 mi SE 5.8 mph - N/A   Clear
11:33 PM 71.6 °F - 66.2 °F 83% 29.88 in 10.0 mi SSE 8.1 mph - N/A   Clear
11:53 PM 69.8 °F - 66.2 °F 88% 29.88 in 10.0 mi SE 4.6 mph - N/A   Clear